Regional Weather Roundup
Issued by NWS Northern Indiana

Home | Current Version | Previous Version | Text Only | Print | Product List | Glossary Off
Versions: 1 2 3 4 5 6 7 8 9 10 11 12 13 14 15 16 17 18 19 20 21 22 23 24 25 26 27 28 29 30 31 32 33 34 35 36 37 38 39 40 41 42 43 44 45 46 47 48 49 50

000
ASUS43 KIWX 011010
RWRIWX

KIWX WEATHER ROUNDUP
NATIONAL WEATHER SERVICE NORTHERN INDIANA
600 AM EDT TUE SEP 01 2015

NOTE: "FAIR" INDICATES FEW OR NO CLOUDS BELOW 12,000 FEET WITH NO
SIGNIFICANT WEATHER AND/OR OBSTRUCTIONS TO VISIBILITY.

* THESE STATIONS ARE NOT UNDER NWS QUALITY CONTROL. THEY ALSO MAY NOT
  REPORT WEATHER SUCH AS PRECIPITATION OR FOG.

INZ001>027-011100-
NORTHERN INDIANA

CITY           SKY/WX    TMP DP  RH WIND       PRES   REMARKS
GARY*          PTCLDY    72  68  88 CALM      30.05F
VALPARAISO     PTCLDY    68  66  93 CALM      30.07S FOG
MICHIGAN CITY* PTCLDY    70  70 100 CALM      30.07S
LAPORTE*         N/A    N/A N/A N/A CALM      30.08S FOG
KNOX*          CLEAR     68  68 100 S5        30.07S
SOUTH BEND     CLEAR     68  67  96 SW5       30.08S FOG
GOSHEN         CLEAR     68  66  93 S3        30.09R FOG
MONTICELLO*    MOCLDY    70  70  99 S6        30.08R
LOGANSPORT*    CLEAR     64  63  94 S3        30.10R FOG
ROCHESTER*     CLEAR     72  70  94 SE3       30.10R
WARSAW*        PTCLDY    68  68 100 CALM      30.09S FOG
ANGOLA*        CLOUDY    64  55  72 CALM      30.09S VSB 1/4
FORT WAYNE     PTCLDY    68  66  93 SW6       30.10R
HUNTINGTON*    CLEAR     67  64  89 CALM      30.10R FOG
MARION*        PTCLDY    65  60  84 CALM      30.12R HAZE

$$
INZ028>050-011100-
CENTRAL INDIANA

CITY           SKY/WX    TMP DP  RH WIND       PRES   REMARKS
LAFAYETTE      PTCLDY    69  66  90 CALM      30.09R
KOKOMO*        MOCLDY    66  63  88 SW5       30.11R
MUNCIE*        PTCLDY    68  67  96 SW3       30.12R
INDIANAPOLIS   MOCLDY    70  66  87 SW3       30.10S

$$
MIZ043>046-050>051-056>058-064>065-071>073-077>080-011100-
SOUTHWEST LOWER MICHIGAN

CITY           SKY/WX    TMP DP  RH WIND       PRES   REMARKS
BATTLE CREEK   CLEAR     65  63  93 CALM      30.08S FOG
BENTON HARBOR  CLEAR     67  66  97 CALM      30.06S FOG
COLDWATER*     CLEAR     64  64 100 CALM      30.09S FOG
HILLSDALE*     CLEAR     65  65 100 CALM      30.10R FOG
HOLLAND        CLEAR     66  64  93 S3        30.06S FOG
GRAND RAPIDS   PTCLDY    65  63  93 S3        30.07S FOG
KALAMAZOO      CLEAR     66  64  93 S5        30.08S FOG
STURGIS*         N/A     66  66 100 CALM      30.08S FOG
THREE RIVERS*  FOG       65  65 100 S3        30.09R VSB 1/2

$$
OHZ001>008-015>018-024>025-011100-
NORTHWEST OHIO

CITY           SKY/WX    TMP DP  RH WIND       PRES   REMARKS
WAUSEON*       FOG       64  64 100 CALM      30.08S VSB 1/2
DEFIANCE       CLEAR     68  65  90 CALM      30.09S FOG
FINDLAY        CLEAR     68  65  90 SW3       30.09R FOG
TOLEDO EXPRESS CLEAR     65  65 100 CALM      30.08R FOG
TOLEDO METCALF CLEAR     68  64  87 SW3       30.09R FOG
LIMA           CLEAR     68  66  93 CALM      30.11R FOG

$$
AND FOR LAKE MICHIGAN COASTAL AND OPEN LAKE BUOY OBSERVATIONS

STATION/POSITION TEMP    WIND        PRES    VSBY  WAVE
                 AIR SEA DIR/SP/G                  HT/PER
                 (F)     (DEG/KT/KT) (MB)    (MI)  (FT/S)
CALUMET HARBOR    73     190/  4/  5   N/A
MICHIGAN CITY     75     160/ 11/ 13   N/A
BURNS HARBOR      73     190/  8/ 11 1017.9S
SAINT JOSEPH      72     150/  5/  8 1017.9R
SOUTH LAKE BUOY   71 69  170/  8/  8 1016.6F         0
4 MI NW BRIDGMAN  72 71  230/  6/  8   N/A           0
MICHIGAN CITY     73 72  200/  6/  8   N/A           1

$$
&&


USA.gov is the U.S. government's official web portal to all federal, state and local government web resources and services.